Home   Weather   Gaborone   Past weeks

Flag for Botswana Past Weather in Gaborone, Botswana — Yesterday and Last 2 Weeks

Now
75 °F

Scattered clouds.


Feels Like: 77 °F
Forecast: 50 / 74 °F
Wind: 5 mph from Southeast

Location: Seretse Khama International Airport

Current Time: Apr 29, 2017 at 3:43:48 pm

Latest Report: Apr 29, 2017 at 3:00 pm


Visibility: N/A

Pressure: 30.30 "Hg (26.98 "Hg at 1009m altitude)

Humidity: 39%

Dew Point: 48 °F

Location of GaboroneLocation

Past Weather in Gaborone — Graph

°F

Gaborone Temperature Yesterday

Maximum temperature yesterday: 77 °F (at 3:00 pm)
Minimum temperature yesterday: 48 °F (at 4:00 am)
Average temperature yesterday: 63 °F

High & Low Weather Summary for the Past Weeks

 TemperatureHumidityPressure
High82 °F (Apr 21, 4:00 pm)100% (Apr 14, 10:00 pm)30.45 "Hg (Apr 14, 10:00 pm)
Low48 °F (Apr 21, 5:00 am)16% (Apr 21, 4:00 pm)30.07 "Hg (Apr 14, 5:00 pm)
Average64 °F70%30.21 "Hg
* Reported Apr 14 2:00 pm — Apr 29 2:00 pm, Gaborone, Weather by CustomWeather, © 2017

Note: Actual official high and low records may vary slightly from our data, if they occured in-between our weather recording intervals... More about our weather records

Advertising

Gaborone Weather History for the Previous 24 Hours

Scroll right to see more
 ConditionsComfort  
Time TempWeatherWind HumidityBarometerVisibility
2:00 pm
Sat, Apr 29
73 °FScattered clouds.7 mph41%30.33 "HgN/A
1:00 pm73 °FScattered clouds.7 mph44%30.36 "HgN/A
12:00 pm72 °FPassing clouds.6 mph50%30.39 "HgN/A
11:00 am70 °FPassing clouds.7 mph53%30.42 "HgN/A
9:00 am64 °FPassing clouds.6 mph60%30.45 "HgN/A
8:00 am57 °FCool.3 mph77%30.42 "HgN/A
7:00 am52 °FClear.6 mph88%30.39 "Hg6 mi
6:00 am52 °FClear.8 mph88%30.39 "Hg6 mi
5:00 am52 °FClear.5 mph94%30.36 "Hg4 mi
4:00 am52 °FClear.5 mph88%30.36 "Hg6 mi
3:00 am52 °FClear.1 mph94%30.36 "Hg4 mi
2:00 am52 °FClear.3 mph94%30.36 "Hg4 mi
1:00 am54 °FClear.2 mph82%30.36 "Hg4 mi
12:00 am54 °FClear.3 mph88%30.36 "Hg4 mi
11:00 pm
Fri, Apr 28
57 °FClear.3 mph77%30.36 "Hg5 mi
10:00 pm57 °FClear.1 mph77%30.36 "Hg10 mi
9:00 pm59 °FClear.1 mph72%30.33 "Hg10 mi
8:00 pm66 °FClear.2 mph56%30.33 "Hg10 mi
7:00 pm68 °FPassing clouds.2 mph56%30.33 "HgN/A
6:00 pm72 °FPassing clouds.2 mph44%30.30 "HgN/A
5:00 pm75 °FScattered clouds.7 mph34%30.30 "HgN/A
4:00 pm75 °FScattered clouds.7 mph36%30.30 "HgN/A
3:00 pm77 °FScattered clouds.9 mph34%30.30 "HgN/A
Weather by CustomWeather, © 2017

See weather overviewHow to use our weather pages